Chillicothe, MO

12:07 PM CDT on May 26, 2017 (GMT -0500)
Chillicothe

Weather History for KCDJ - December, 2012

Change the Weather History Date:

Sunday, December 16, 2012

  Actual Average (KIRK) Record (KIRK)
Temperature  
Mean Temperature 40 °F -  
Max Temperature 42 °F 36 °F 64 °F (2006)
Min Temperature 36 °F 21 °F -15 °F (1932)
Degree Days  
Heating Degree Days 26    
Moisture  
Dew Point 35 °F    
Average Humidity 86    
Maximum Humidity 93    
Minimum Humidity 82    
Precipitation  
Precipitation 0.00 in - - ()
Sea Level Pressure  
Sea Level Pressure 29.78 in    
Wind  
Wind Speed 4 mph (NNW)    
Max Wind Speed 7 mph    
Max Gust Speed -    
Averages and records for this station are not official NWS values.
T = Trace of Precipitation, MM = Missing Value Source: NWS Daily Summary

Daily Weather History Graph

Daily Weather History Graph

Search for Another Location

Airport or City:

Trip Planner

Search our weather history database for the weather conditions in past years. The results will help you decide how hot, cold, wet, or windy it might be!

Date:

Astronomy

Dec. 16, 2012 Rise Set
Actual Time 7:29 AM CST 4:51 PM CST
Civil Twilight 6:59 AM CST 5:21 PM CST
Nautical Twilight 6:25 AM CST 5:55 PM CST
Astronomical Twilight 5:52 AM CST 6:28 PM CST
Moon 10:03 AM CST (12/16) 9:05 PM CST (12/16)
Length of Visible Light 10h 22m
Length of Day
9h 21m
Waxing Crescent, 16% of the Moon is Illuminated
Dec 16
Waxing Crescent
Dec 19
First Quarter
Dec 28
Full
Jan 4
Last Quarter
Jan 11
New

Hourly Weather History & Observations

Time (CST) Temp. Windchill Dew Point Humidity Pressure Visibility Wind Dir Wind Speed Gust Speed Precip Events Conditions
12:52 AM 42.1 °F 38.4 °F 37.0 °F 82% 29.73 in - WNW 5.8 mph - N/A   Unknown
1:52 AM 41.0 °F 38.0 °F 37.0 °F 86% 29.74 in - WNW 4.6 mph - N/A   Unknown
2:52 AM 41.0 °F 39.0 °F 37.0 °F 86% 29.73 in - NNW 3.5 mph - N/A   Unknown
3:52 AM 39.9 °F 35.8 °F 36.0 °F 86% 29.75 in - Variable 5.8 mph - N/A   Unknown
4:52 AM 39.0 °F 34.0 °F 36.0 °F 89% 29.75 in - NW 6.9 mph - N/A   Unknown
5:52 AM 39.9 °F 37.8 °F 36.0 °F 86% 29.76 in - Variable 3.5 mph - N/A   Unknown
6:52 AM 39.9 °F 36.7 °F 36.0 °F 86% 29.77 in - NW 4.6 mph - N/A   Unknown
7:52 AM 39.0 °F - 36.0 °F 89% 29.78 in - Calm Calm - N/A   Unknown
8:52 AM 39.0 °F 35.7 °F 35.1 °F 86% 29.79 in - North 4.6 mph - N/A   Unknown
9:52 AM 39.0 °F 35.7 °F 35.1 °F 86% 29.80 in - NNW 4.6 mph - N/A   Unknown
10:52 AM 39.0 °F - 35.1 °F 86% 29.80 in - Calm Calm - N/A   Unknown
12:52 PM 39.0 °F 35.7 °F 34.0 °F 82% 29.75 in - North 4.6 mph - N/A   Unknown
1:52 PM 39.0 °F - 35.1 °F 86% 29.74 in - Calm Calm - N/A   Unknown
2:52 PM 39.0 °F 36.8 °F 35.1 °F 86% 29.75 in - Variable 3.5 mph - N/A   Unknown
3:52 PM 39.0 °F - 35.1 °F 86% 29.76 in - Calm Calm - N/A   Unknown
4:52 PM 39.0 °F 34.8 °F 35.1 °F 86% 29.78 in - NNE 5.8 mph - N/A   Unknown
5:52 PM 39.0 °F 34.8 °F 35.1 °F 86% 29.78 in - Variable 5.8 mph - N/A   Unknown
6:52 PM 39.0 °F - 35.1 °F 86% 29.81 in - Calm Calm - N/A   Unknown
7:52 PM 39.0 °F - 35.1 °F 86% 29.83 in - Calm Calm - N/A   Unknown
8:52 PM 37.9 °F 34.4 °F 34.0 °F 86% 29.82 in - North 4.6 mph - N/A   Unknown
9:52 PM 37.0 °F 32.4 °F 34.0 °F 89% 29.82 in - North 5.8 mph - N/A   Unknown
10:52 PM 37.0 °F 34.5 °F 34.0 °F 89% 29.83 in - North 3.5 mph - N/A   Unknown
11:52 PM 36.0 °F 33.3 °F 34.0 °F 93% 29.82 in - North 3.5 mph - N/A   Unknown